OBJECT B, 44311

Orbit data source: Space-Track

You're viewing an Uncataloged Satellite

Recently launched and/or uncataloged satellites may have evolving metadata. Metadata may include but not limited to: Owner, Maufacturer, Bus, Motor, and Mission.

OBJECT B, 44311 is a Chinese satellite in LEO that was launched on Wed, 05 Jun 2019 UTC via a CHANG ZHENG 11 launch vehicle from the Yellow Sea Launch Area, China (YSLA). Unknown objects in Earth's orbit typically refer to objects detected orbiting the Earth but have not yet been identified or cataloged. These objects could be anything from previously untracked satellites, spent rocket stages, debris from satellite collisions, or even natural meteoroids temporarily captured by Earth's gravity.

Loading next visibility...
Identifier
44311, 2019-032B
Orbit
LEO
Country
Flag of CNCN / PRC
Related business
None
Manufacturer
GUOG?
Mission
Operational Commercial Communications
Bus & Motor
CUBESAT 6U?, Unknown motor
Mass
8 kg wet, 8 kg dry
Launch date (UTC)
2019-06-05 (6 years ago)
Launch vehicle
CHANG ZHENG 11
Launch site
Yellow Sea Launch Area, China (YSLA)
Object type
Unknown
Shape & HBR
Box, 0.1 m
Radar Cross Section
0.080 m², Medium (>0.1 m² and < 1m²)

Expand to show TLE details & history
Last TLE update: 5 hours ago

TLE from 5 hours ago
0 OBJECT B
1 44311U 19032B   25242.92247388  .00016966  00000-0  78250-3 0  9999
2 44311  44.9742 146.8770 0032576 103.2383 257.2134 15.19631368343468
Epoch: 2025-08-30T22:08Z
TLE epoch observation values (Epoch: 2025-08-30T22:08:21.743Z)
Latitude
0.00003°
Longitude
-164.56338°
Altitude
511.982 km
Speed
7.607 km/s
True Right ascension
09h 47m 30s
True Declination
0° 00' 00"
Sunlit
Object was in daylight at epoch
Visualization orbit readout
Latitude
Unknown
Longitude
Unknown
Altitude
Unknown
Speed
Unknown
Apparent Right ascension
Unknown
Apparent Declination
Unknown
Sunlit
N/A
Visualization observer readout
Local Sidereal Time
18:59:28
Azimuth
Unknown
Elevation
Unknown
Doppler factor
Unknown
Orbital elements
Apogee altitude
530.996 km
Perigee altitude
486.128 km
Semi-major axis
6,886.699 km
Eccentricity
0.00326
Inclination
44.9742°
RAAN
146.877°
Arg. of periapsis
103.2383°
True anomaly
256.84969°
Mean anomaly
257.2134°
Eccentric anomaly
257.03151°
Mean motion
3.79775 °/min
Orbital period
94.79 mins
BSTAR
0.0007825
Loading maneuver chart data...
Computing Atmospheric mass density...
Loading historical data...
Loading historical data...
Loading historical data...
Loading historical data...
Loading historical data...
Loading historical data...
Loading historical data...

Documentation

Showing up to 5 results
|